Hourly Data Report for August 14, 2000

SHERBROOKE A
QUEBEC

45°26'00.000" N
71°41'00.000" W
241.40 m
7028124
71610
YSC

Download Data

Hourly Data (August 2000)
Hourly Data Report for August 14, 2000
TIME
LST
Temp Definition
°C
Dew Point Definition
°C
Rel Hum Definition
%
Precip. Amount Definition
mm

Wind Dir Definition
10's deg

Wind Spd Definition
km/h
Visibility Definition
km
Stn Press Definition
kPa
Hmdx Definition


Wind Chill Definition


Weather Definition


00:00 13.8 12.9 94   9 7 15.0 98.75      
01:00 12.9 12.3 96   8 6 15.0 98.79      
02:00 12.4 11.9 97   8 4 15.0 98.79      
03:00 12.9 12.3 96   5 4 15.0 98.79      
04:00 12.8 12.2 96   12 7 15.0 98.82      
05:00 12.6 12.2 97   11 6 15.0 98.85      
06:00 13.6 12.9 96   11 4 15.0 98.88      
07:00 14.8 13.7 93     0 19.3 98.92     Mostly Cloudy
08:00 17.8 14.7 82   7 4 24.1 98.92     Mostly Cloudy
09:00 19.2 15.1 77   12 6 24.1 98.92     Mostly Cloudy
10:00 20.9 15.3 70   4 4 24.1 98.88 25   Mostly Cloudy
11:00 22.9 15.1 61   11 4 24.1 98.85 27   Mostly Cloudy
12:00 24.9 15.6 56   2 13 24.1 98.82 29   Mostly Cloudy
13:00 26.0 15.3 52   12 13 24.1 98.79 30   Mostly Cloudy
14:00 24.5 14.2 53   4 7 24.1 98.79 28   Mostly Cloudy
15:00 24.5 14.2 53   9 7 24.1 98.75 28   Mostly Cloudy
16:00 23.3 15.2 60   11 9 24.1 98.79 27   Rain Showers
17:00 23.0 16.9 69     0 15.0 98.79 28    
18:00 21.5 17.3 77   34 4 15.0 98.79 27    
19:00 20.4 17.2 82   13 7 15.0 98.88 26    
20:00 19.4 16.5 83   18 9 15.0 98.98     Rain
21:00 17.8 16.9 94   4 6 12.9 98.95     Rain
22:00 17.5 17.0 97   8 11 11.3 98.92     Rain
23:00 16.8 16.4 97     0 9.7 98.88      

Notes on Data Quality.

Legend

  • E = Estimated
  • M = Missing
  • NA = Not Available*
  • [empty] = Indicates an unobserved value
Date modified: